COSMOS 2251 DEB, 36430

Orbit data source: Space-Track

COSMOS 2251 DEB, 36430 is space debris in LEO originally from a launch on Wed, 16 Jun 1993 UTC launched from the Plesetsk Missile And Space Complex (PKMTR). The debris from Iridium 33, an American commercial communications satellite, has been tracked extensively since its accidental collision with the defunct Russian satellite Cosmos 2251 in 2009. This event, occurring at high speed in low Earth orbit (LEO), generated thousands of pieces of space debris, significantly increasing the risk of further collisions. The Iridium 33 debris cloud has impacted space traffic management and orbital debris mitigation strategies, making it a subject of ongoing study in space situational awareness.

Loading next visibility...
Identifier
36430, 1993-036BAD
Orbit
LEO
Country
Flag of CISCIS
Related business
Manufacturer
Unknown
Mission
Spacecraft
Bus & Motor
Unknown
Mass
Unknown
Launch date (UTC)
1993-06-16 (33 years ago)
Launch vehicle
Unknown
Launch site
Plesetsk Missile And Space Complex (PKMTR)
Object type
Payload
Rocket body
Debris
Shape & HBR
Unknown shape, 0.1 m
Radar Cross Section
Small (<0.1 m²)

Expand to show TLE details & history
Last TLE update: 3 weeks ago

TLE from 3 weeks ago
0 COSMOS 2251 DEB
1 36430U 93036BAD 26011.38751162  .00000903  00000-0  35713-3 0  9994
2 36430  74.0042  54.7082 0096712 198.6876 161.0714 14.27877175649807
Epoch: 2026-01-11T09:18Z
TLE epoch observation values (Epoch: 2026-01-11T09:18:01.003Z)
Latitude
-0.00004°
Longitude
164.30473°
Altitude
867.172 km
Speed
7.385 km/s
True Right ascension
03h 38m 49s
True Declination
0° 00' 00"
Sunlit
Object was in full shadow at epoch
Visualization orbit readout
Latitude
Unknown
Longitude
Unknown
Altitude
Unknown
Speed
Unknown
Apparent Right ascension
Unknown
Apparent Declination
Unknown
Sunlit
N/A
Visualization observer readout
Local Sidereal Time
01:43:25
Azimuth
Unknown
Elevation
Unknown
Doppler factor
Unknown
Orbital elements
Apogee altitude
865.858 km
Perigee altitude
727.084 km
Semi-major axis
7,174.608 km
Eccentricity
0.00967
Inclination
74.0042°
RAAN
54.7082°
Arg. of periapsis
198.6876°
True anomaly
161.42683°
Mean anomaly
161.0714°
Eccentric anomaly
161.24952°
Mean motion
3.57146 °/min
Orbital period
100.8 mins
BSTAR
0.00035713
Loading maneuver chart data...
Computing Atmospheric mass density...

Documentation

Showing up to 5 results
|